GW3577 Weather Reports


Display with metric or nautical units.
time (UTC)temp
F
wind
direction
speed
MPH
gust
MPH
rain 1hr
in
rain 24hr
in
rain mn
in
humidity
%
barometer
mb
20260509143510 62 155 0.0 0.0 0.00 0.00 0.00 64 1012.6
20260509143009 62 155 2.0 3.0 0.00 0.00 0.00 65 1012.3
20260509142504 62 161 0.0 0.0 0.00 0.00 0.00 67 1012.3
20260509141959 60 161 1.0 2.0 0.00 0.00 0.00 69 1012.0
20260509141455 59 161 1.0 2.0 0.00 0.00 0.00 70 1012.3
20260509140953 58 161 0.0 0.0 0.00 0.00 0.00 71 1012.6
20260509140449 58 161 1.0 2.0 0.00 0.00 0.00 71 1012.6
20260509135947 57 161 1.0 2.0 0.00 0.00 0.00 71 1012.6
20260509135444 58 338 0.0 0.0 0.00 0.00 0.00 70 1013.0
20260509134941 58 338 0.0 0.0 0.00 0.00 0.00 69 1013.0
20260509134439 58 338 0.0 0.0 0.00 0.00 0.00 71 1013.0
20260509133936 57 338 0.0 0.0 0.00 0.00 0.00 72 1013.0
20260509133432 57 338 0.0 0.0 0.00 0.00 0.00 72 1013.0
20260509132931 56 338 0.0 0.0 0.00 0.00 0.00 75 1013.0
20260509132429 55 338 0.0 0.0 0.00 0.00 0.00 75 1013.3
20260509131925 55 338 0.0 0.0 0.00 0.00 0.00 73 1013.3
20260509131423 54 338 0.0 0.0 0.00 0.00 0.00 77 1013.3
20260509130919 54 338 0.0 0.0 0.00 0.00 0.00 77 1013.3
20260509130414 53 338 0.0 0.0 0.00 0.00 0.00 79 1013.3
20260509125912 53 338 0.0 0.0 0.00 0.00 0.00 80 1013.3
20260509125409 53 338 0.0 0.0 0.00 0.00 0.00 81 1013.3
20260509124904 53 338 0.0 0.0 0.00 0.00 0.00 81 1013.7
20260509124402 52 338 0.0 0.0 0.00 0.00 0.00 82 1013.7
20260509123859 52 338 0.0 0.0 0.00 0.00 0.00 82 1013.7
20260509123356 52 338 0.0 0.0 0.00 0.00 0.00 82 1013.7
20260509122852 52 338 0.0 0.0 0.00 0.00 0.00 80 1013.7
20260509122349 52 338 0.0 0.0 0.00 0.00 0.00 81 1013.7
20260509121846 52 338 0.0 0.0 0.00 0.00 0.00 83 1013.7
20260509121343 51 338 0.0 0.0 0.00 0.00 0.00 82 1013.7
20260509120841 51 338 0.0 0.0 0.00 0.00 0.00 80 1013.7
20260509120339 51 338 0.0 0.0 0.00 0.00 0.00 81 1013.7
20260509115837 50 338 0.0 0.0 0.00 0.00 0.00 83 1013.7
20260509115333 50 338 0.0 0.0 0.00 0.00 0.00 87 1013.7
20260509114831 49 338 0.0 0.0 0.00 0.00 0.00 93 1013.3
20260509114330 49 338 0.0 0.0 0.00 0.00 0.00 96 1013.7
20260509113829 48 338 0.0 0.0 0.00 0.00 0.00 96 1013.3
20260509113325 47 338 0.0 0.0 0.00 0.00 0.00 97 1013.7
20260509112822 47 338 0.0 0.0 0.00 0.00 0.00 96 1013.3
20260509112319 46 338 0.0 0.0 0.00 0.00 0.00 96 1013.3
20260509111816 46 338 0.0 0.0 0.00 0.00 0.00 97 1013.3
20260509111313 46 338 0.0 0.0 0.00 0.00 0.00 97 1013.3
20260509110811 45 338 0.0 0.0 0.00 0.00 0.00 97 1013.0
20260509110307 45 338 0.0 0.0 0.00 0.00 0.00 97 1013.0
20260509105805 44 338 0.0 0.0 0.00 0.00 0.00 97 1013.0
20260509105306 44 338 0.0 0.0 0.00 0.00 0.00 96 1013.0
20260509104759 44 338 0.0 0.0 0.00 0.00 0.00 95 1013.0
20260509104256 44 338 0.0 0.0 0.00 0.00 0.00 96 1013.0
20260509103754 44 338 0.0 0.0 0.00 0.00 0.00 97 1012.6
20260509103251 44 338 0.0 0.0 0.00 0.00 0.00 97 1012.6
20260509102749 43 338 0.0 0.0 0.00 0.00 0.00 97 1012.6
20260509102246 43 338 0.0 0.0 0.00 0.00 0.00 97 1012.6
20260509101742 43 338 0.0 0.0 0.00 0.00 0.00 98 1012.6
20260509101239 43 338 0.0 0.0 0.00 0.00 0.00 98 1012.6
20260509100736 43 338 0.0 0.0 0.00 0.00 0.00 97 1012.6
20260509100233 43 338 0.0 0.0 0.00 0.00 0.00 97 1012.6
20260509095730 43 338 0.0 0.0 0.00 0.00 0.00 97 1012.6
20260509095227 43 338 0.0 0.0 0.00 0.00 0.00 97 1012.6
20260509094724 43 338 0.0 0.0 0.00 0.00 0.00 97 1012.6
20260509094221 43 338 0.0 0.0 0.00 0.00 0.00 97 1012.6
20260509093719 43 338 0.0 0.0 0.00 0.00 0.00 97 1012.6
20260509093217 44 338 0.0 0.0 0.00 0.00 0.00 97 1012.6
20260509092715 44 338 0.0 0.0 0.00 0.00 0.00 97 1012.6
20260509092213 44 338 0.0 0.0 0.00 0.00 0.00 97 1012.6
20260509091710 43 338 0.0 0.0 0.00 0.00 0.00 96 1012.6
20260509091205 43 338 0.0 0.0 0.00 0.00 0.00 96 1012.6
20260509090704 44 338 0.0 0.0 0.00 0.00 0.00 96 1012.6
20260509090200 44 338 0.0 0.0 0.00 0.00 0.00 96 1012.6
20260509085658 44 338 0.0 0.0 0.00 0.00 0.00 96 1013.0
20260509085154 44 338 0.0 0.0 0.00 0.00 0.00 95 1013.0
20260509084652 44 338 0.0 0.0 0.00 0.00 0.00 94 1013.0
20260509084149 45 338 0.0 0.0 0.00 0.00 0.00 94 1013.0
20260509083647 45 338 0.0 0.0 0.00 0.00 0.00 93 1013.0
20260509083143 45 338 0.0 0.0 0.00 0.00 0.00 93 1013.0
20260509082640 45 338 0.0 0.0 0.00 0.00 0.00 93 1013.0
20260509082136 45 338 0.0 0.0 0.00 0.00 0.00 94 1013.0
20260509081633 45 338 0.0 0.0 0.00 0.00 0.00 94 1013.0
20260509081131 45 338 0.0 0.0 0.00 0.00 0.00 93 1013.0
20260509080628 45 338 0.0 0.0 0.00 0.00 0.00 93 1013.0
20260509080126 45 338 0.0 0.0 0.00 0.00 0.00 93 1013.0
20260509075624 45 338 0.0 0.0 0.00 0.00 0.00 92 1013.0
20260509075121 45 338 0.0 0.0 0.00 0.00 0.00 93 1013.3
20260509074618 45 338 0.0 0.0 0.00 0.00 0.00 92 1013.0
20260509074114 44 338 0.0 0.0 0.00 0.00 0.00 92 1013.0
20260509073611 44 338 0.0 0.0 0.00 0.00 0.00 93 1013.3
20260509073108 44 338 0.0 0.0 0.00 0.00 0.00 93 1013.3
20260509072605 44 338 0.0 0.0 0.00 0.00 0.00 93 1013.3
20260509072101 44 338 0.0 0.0 0.00 0.00 0.00 93 1013.3
20260509071558 44 338 0.0 0.0 0.00 0.00 0.00 93 1013.3
20260509071055 44 338 0.0 0.0 0.00 0.00 0.00 93 1013.3
20260509070553 44 338 0.0 0.0 0.00 0.00 0.00 92 1013.3
20260509070049 44 338 0.0 0.0 0.00 0.00 0.00 92 1013.7
20260509065544 44 338 0.0 0.0 0.00 0.00 0.00 91 1013.7
20260509065041 44 338 0.0 0.0 0.00 0.00 0.00 92 1013.7
20260509064539 44 338 0.0 0.0 0.00 0.00 0.00 92 1013.7
20260509064037 44 338 0.0 0.0 0.00 0.00 0.00 92 1013.7
20260509063531 44 338 0.0 0.0 0.00 0.00 0.00 91 1014.0
20260509063030 45 338 0.0 0.0 0.00 0.00 0.00 92 1014.0
20260509062526 45 338 0.0 0.0 0.00 0.00 0.00 91 1014.0
20260509062024 45 338 0.0 0.0 0.00 0.00 0.00 90 1014.0
20260509061520 44 338 0.0 0.0 0.00 0.00 0.00 91 1014.0
20260509061018 44 338 0.0 0.0 0.00 0.00 0.00 91 1014.0
20260509060515 44 338 0.0 0.0 0.00 0.00 0.00 91 1014.0
20260509060011 44 338 0.0 0.0 0.00 0.00 0.00 92 1014.0
20260509055506 44 338 0.0 0.0 0.00 0.00 0.00 92 1014.3
20260509055003 45 338 0.0 0.0 0.00 0.00 0.00 91 1014.3
20260509054459 45 338 0.0 0.0 0.00 0.00 0.00 89 1014.3
20260509053957 45 338 0.0 0.0 0.00 0.00 0.00 90 1014.3
20260509053455 44 338 0.0 0.0 0.00 0.00 0.00 90 1014.3
20260509052952 45 338 0.0 0.0 0.00 0.00 0.00 90 1014.3
20260509052450 45 338 0.0 0.0 0.00 0.00 0.00 89 1014.3
20260509051948 46 338 0.0 0.0 0.00 0.00 0.00 89 1014.3
20260509051445 45 338 0.0 0.0 0.00 0.00 0.00 89 1014.3
20260509050942 45 338 0.0 0.0 0.00 0.00 0.00 91 1014.3
20260509050438 44 338 0.0 0.0 0.00 0.00 0.00 93 1014.3
20260509045935 44 338 0.0 0.0 0.00 0.00 0.00 94 1014.3
20260509045432 44 338 0.0 0.0 0.00 0.00 0.00 95 1014.3
20260509044929 44 338 0.0 0.0 0.00 0.00 0.00 94 1014.3
20260509044427 44 338 0.0 0.0 0.00 0.00 0.00 93 1014.3
20260509043924 45 338 0.0 0.0 0.00 0.00 0.00 92 1014.3
20260509043419 45 338 0.0 0.0 0.00 0.00 0.00 92 1014.3
20260509042915 45 338 0.0 0.0 0.00 0.00 0.00 91 1014.3
20260509042413 46 338 0.0 0.0 0.00 0.00 0.00 92 1014.3
20260509041909 46 338 0.0 0.0 0.00 0.00 0.00 93 1014.3
20260509041406 46 338 0.0 0.0 0.00 0.00 0.00 91 1014.3
20260509040904 46 338 0.0 0.0 0.00 0.00 0.00 91 1014.3
20260509040403 47 338 0.0 0.0 0.00 0.00 0.00 91 1014.3
20260509035859 46 338 0.0 0.0 0.00 0.00 0.00 90 1014.3
20260509035356 47 338 0.0 0.0 0.00 0.00 0.00 89 1014.7
20260509034852 47 338 0.0 0.0 0.00 0.00 0.00 88 1014.7
20260509034350 47 338 0.0 0.0 0.00 0.00 0.00 87 1014.7
20260509033847 47 338 1.0 3.0 0.00 0.00 0.00 89 1014.7
20260509033344 48 338 0.0 0.0 0.00 0.00 0.00 89 1014.7
20260509032840 48 338 0.0 0.0 0.00 0.00 0.00 89 1014.7
20260509032337 48 338 0.0 0.0 0.00 0.00 0.00 89 1014.7
20260509031835 48 338 0.0 0.0 0.00 0.00 0.00 89 1015.0
20260509031332 48 338 0.0 0.0 0.00 0.00 0.00 87 1015.0
20260509030830 49 338 0.0 0.0 0.00 0.00 0.00 85 1015.0
20260509030327 49 338 0.0 0.0 0.00 0.00 0.00 84 1015.0
20260509025824 49 338 0.0 0.0 0.00 0.00 0.00 82 1015.0
20260509025320 49 338 0.0 0.0 0.00 0.00 0.00 83 1015.0
20260509024815 49 338 0.0 0.0 0.00 0.00 0.00 85 1015.0
20260509024312 49 338 0.0 0.0 0.00 0.00 0.00 84 1015.0
20260509023808 49 338 0.0 0.0 0.00 0.00 0.00 83 1015.0
20260509023306 49 338 0.0 0.0 0.00 0.00 0.00 83 1015.0
20260509022802 49 338 0.0 0.0 0.00 0.00 0.00 84 1015.0
20260509022300 49 338 0.0 0.0 0.00 0.00 0.00 85 1015.0
20260509021756 49 338 0.0 0.0 0.00 0.00 0.00 84 1015.0
20260509021254 49 338 0.0 0.0 0.00 0.00 0.00 85 1015.0
20260509020751 49 338 0.0 0.0 0.00 0.00 0.00 84 1015.0
20260509020249 50 338 0.0 0.0 0.00 0.00 0.00 84 1015.0
20260509015747 50 338 0.0 0.0 0.00 0.00 0.00 83 1015.0
20260509015245 49 338 0.0 0.0 0.00 0.00 0.00 85 1015.0
20260509014741 49 338 0.0 3.0 0.00 0.00 0.00 85 1015.0
20260509014238 49 338 0.0 0.0 0.00 0.00 0.00 86 1014.7
20260509013734 49 338 0.0 0.0 0.00 0.00 0.00 86 1014.7
20260509013230 49 338 0.0 0.0 0.00 0.00 0.00 86 1014.7
20260509012727 49 338 0.0 0.0 0.00 0.00 0.00 86 1014.7
20260509012223 49 338 1.0 2.0 0.00 0.00 0.00 86 1014.7
20260509011721 50 338 0.0 0.0 0.00 0.00 0.00 84 1014.7
20260509011219 51 338 0.0 0.0 0.00 0.00 0.00 84 1014.3
20260509010716 51 338 0.0 1.0 0.00 0.00 0.00 81 1014.3
20260509010212 52 338 0.0 0.0 0.00 0.00 0.00 80 1014.3
20260509005710 52 338 0.0 0.0 0.00 0.00 0.00 80 1014.3
20260509005207 53 338 0.0 3.0 0.00 0.00 0.00 79 1014.3
20260509004702 53 217 0.0 0.0 0.00 0.00 0.00 81 1014.3
20260509004159 53 217 0.0 0.0 0.00 0.00 0.00 80 1014.7
20260509003658 54 217 0.0 0.0 0.00 0.00 0.00 78 1014.3
20260509003155 55 217 0.0 0.0 0.00 0.00 0.00 77 1014.7
20260509002652 56 217 0.0 0.0 0.00 0.00 0.00 72 1014.7
20260509002149 56 217 0.0 0.0 0.00 0.00 0.00 71 1014.7
20260509001647 56 217 0.0 0.0 0.00 0.00 0.00 70 1014.3
20260509001142 57 217 0.0 0.0 0.00 0.00 0.00 68 1014.7
20260509000641 58 217 0.0 0.0 0.00 0.00 0.00 67 1014.7
20260509000137 59 217 0.0 0.0 0.00 0.00 0.00 65 1014.7
20260508235635 60 217 0.0 0.0 0.00 0.00 0.00 62 1014.7
20260508235131 62 217 0.0 0.0 0.00 0.00 0.00 58 1014.3
20260508234629 63 217 0.0 0.0 0.00 0.00 0.00 54 1014.3
20260508234125 64 217 1.0 2.0 0.00 0.00 0.00 48 1014.3
20260508233624 65 217 3.0 4.0 0.00 0.00 0.00 44 1014.3
20260508233121 66 217 1.0 3.0 0.00 0.00 0.00 40 1014.3
20260508232618 67 217 3.0 4.0 0.00 0.00 0.00 40 1014.0
20260508232115 67 179 2.0 4.0 0.00 0.00 0.00 38 1014.0
20260508231613 67 175 3.0 7.0 0.00 0.00 0.00 38 1014.0
20260508231109 68 174 3.0 5.0 0.00 0.00 0.00 38 1013.7
20260508230606 68 235 2.0 6.0 0.00 0.00 0.00 38 1013.7
20260508225601 68 233 1.0 2.0 0.00 0.00 0.00 38 1013.7
20260508225057 68 220 4.0 6.0 0.00 0.00 0.00 37 1013.7
20260508224555 68 213 4.0 7.0 0.00 0.00 0.00 36 1013.7
20260508224052 69 175 5.0 8.0 0.00 0.00 0.00 36 1013.7
20260508223549 69 188 4.0 6.0 0.00 0.00 0.00 37 1013.7
20260508223046 69 182 3.0 4.0 0.00 0.00 0.00 37 1013.7
20260508222544 69 159 2.0 5.0 0.00 0.00 0.00 37 1013.7
20260508222041 69 208 4.0 9.0 0.00 0.00 0.00 36 1013.7
20260508221537 69 199 5.0 7.0 0.00 0.00 0.00 36 1013.7
20260508221033 69 191 5.0 7.0 0.00 0.00 0.00 36 1013.7
20260508220530 69 239 7.0 14.0 0.00 0.00 0.00 36 1013.7
20260508220026 69 188 3.0 4.0 0.00 0.00 0.00 35 1013.7
20260508215523 69 188 5.0 8.0 0.00 0.00 0.00 36 1013.7
20260508215020 70 221 5.0 9.0 0.00 0.00 0.00 36 1013.7
20260508214517 70 232 6.0 9.0 0.00 0.00 0.00 36 1013.7
20260508214013 70 212 4.0 7.0 0.00 0.00 0.00 36 1013.7
20260508213511 70 190 4.0 6.0 0.00 0.00 0.00 35 1013.7
20260508213006 70 191 6.0 11.0 0.00 0.00 0.00 35 1013.7
20260508212503 70 220 6.0 11.0 0.00 0.00 0.00 36 1013.7
20260508211959 70 206 6.0 11.0 0.00 0.00 0.00 35 1013.7
20260508211455 70 188 4.0 10.0 0.00 0.00 0.00 35 1013.7
20260508210952 70 203 5.0 6.0 0.00 0.00 0.00 35 1013.7
20260508210448 70 213 5.0 11.0 0.00 0.00 0.00 36 1013.7
20260508205945 71 203 7.0 9.0 0.00 0.00 0.00 36 1013.7
20260508205442 71 175 4.0 7.0 0.00 0.00 0.00 35 1013.7
20260508204938 71 174 7.0 13.0 0.00 0.00 0.00 35 1013.7
20260508204436 71 180 1.0 5.0 0.00 0.00 0.00 34 1013.7
20260508203931 71 213 3.0 6.0 0.00 0.00 0.00 36 1013.7
20260508203427 70 180 5.0 9.0 0.00 0.00 0.00 34 1014.0
20260508202923 71 164 6.0 13.0 0.00 0.00 0.00 34 1013.7
20260508202421 71 199 4.0 9.0 0.00 0.00 0.00 35 1014.0
20260508201918 71 179 4.0 6.0 0.00 0.00 0.00 34 1014.0
20260508201414 71 183 4.0 7.0 0.00 0.00 0.00 35 1014.0
20260508200911 71 169 5.0 9.0 0.00 0.00 0.00 33 1014.0
20260508200408 71 222 2.0 8.0 0.00 0.00 0.00 34 1014.0
20260508195903 71 203 4.0 7.0 0.00 0.00 0.00 35 1014.0
20260508195400 71 228 8.0 17.0 0.00 0.00 0.00 34 1014.0
20260508194856 70 173 6.0 9.0 0.00 0.00 0.00 33 1014.0
20260508194354 71 206 7.0 13.0 0.00 0.00 0.00 34 1014.0
20260508193851 71 236 12.0 17.0 0.00 0.00 0.00 36 1014.3
20260508193348 71 201 6.0 8.0 0.00 0.00 0.00 34 1014.3
20260508192844 70 191 2.0 5.0 0.00 0.00 0.00 33 1014.3
20260508192341 70 185 4.0 7.0 0.00 0.00 0.00 35 1014.3
20260508191838 70 182 6.0 10.0 0.00 0.00 0.00 36 1014.3
20260508191335 70 257 9.0 13.0 0.00 0.00 0.00 34 1014.3
20260508190832 70 252 4.0 8.0 0.00 0.00 0.00 34 1014.7
20260508190329 71 227 8.0 13.0 0.00 0.00 0.00 36 1014.7
20260508185825 70 238 8.0 12.0 0.00 0.00 0.00 34 1014.7
20260508185323 70 228 8.0 12.0 0.00 0.00 0.00 36 1014.7
20260508184820 71 221 8.0 15.0 0.00 0.00 0.00 34 1014.7
20260508184317 70 196 4.0 8.0 0.00 0.00 0.00 34 1014.7
20260508183813 70 168 5.0 10.0 0.00 0.00 0.00 35 1015.0
20260508183310 70 191 4.0 7.0 0.00 0.00 0.00 34 1015.0
20260508182806 69 182 6.0 9.0 0.00 0.00 0.00 33 1015.4
20260508182306 70 204 5.0 8.0 0.00 0.00 0.00 35 1015.0
20260508181759 70 232 9.0 17.0 0.00 0.00 0.00 36 1015.4
20260508181256 70 178 6.0 9.0 0.00 0.00 0.00 36 1015.4
20260508180753 69 238 6.0 11.0 0.00 0.00 0.00 34 1015.4
20260508180250 69 185 8.0 14.0 0.00 0.00 0.00 33 1015.4
20260508175746 69 243 8.0 11.0 0.00 0.00 0.00 34 1015.8
20260508175242 69 180 5.0 9.0 0.00 0.00 0.00 35 1015.8
20260508174740 69 213 4.0 12.0 0.00 0.00 0.00 36 1015.8
20260508174238 69 180 5.0 7.0 0.00 0.00 0.00 36 1015.8
20260508173734 68 185 6.0 9.0 0.00 0.00 0.00 36 1015.8
20260508173230 68 166 5.0 7.0 0.00 0.00 0.00 35 1015.8
20260508172727 69 193 2.0 6.0 0.00 0.00 0.00 35 1016.1
20260508172224 69 235 9.0 13.0 0.00 0.00 0.00 35 1016.1
20260508171720 68 235 8.0 13.0 0.00 0.00 0.00 37 1016.1
20260508171216 68 225 4.0 9.0 0.00 0.00 0.00 36 1016.5
20260508170714 68 243 8.0 12.0 0.00 0.00 0.00 35 1016.1
20260508170212 68 226 6.0 9.0 0.00 0.00 0.00 35 1016.1
20260508165708 68 164 5.0 9.0 0.00 0.00 0.00 36 1016.5
20260508165206 68 158 6.0 11.0 0.00 0.00 0.00 37 1016.5
20260508164702 68 160 6.0 9.0 0.00 0.00 0.00 38 1016.5
20260508164158 68 166 6.0 12.0 0.00 0.00 0.00 38 1016.5
20260508163656 67 280 6.0 9.0 0.00 0.00 0.00 37 1016.8
20260508163153 67 227 6.0 7.0 0.00 0.00 0.00 39 1016.8
20260508162649 68 96 4.0 6.0 0.00 0.00 0.00 37 1017.2
20260508162146 68 115 3.0 4.0 0.00 0.00 0.00 37 1017.2
20260508161643 67 184 3.0 6.0 0.00 0.00 0.00 39 1017.2
20260508161141 67 103 4.0 6.0 0.00 0.00 0.00 43 1017.2
20260508160639 66 121 3.0 5.0 0.00 0.00 0.00 41 1017.5
20260508160136 66 93 6.0 8.0 0.00 0.00 0.00 42 1017.5
20260508155634 66 210 1.0 4.0 0.00 0.00 0.00 44 1017.5
20260508155130 66 111 4.0 7.0 0.00 0.00 0.00 44 1017.5
20260508154627 65 79 3.0 5.0 0.00 0.00 0.00 45 1017.8
20260508154123 64 148 2.0 4.0 0.00 0.00 0.00 42 1017.5
20260508153620 65 124 6.0 8.0 0.00 0.00 0.00 42 1017.5
20260508153117 64 91 3.0 4.0 0.00 0.00 0.00 43 1017.5
20260508152614 64 182 3.0 6.0 0.00 0.00 0.00 44 1017.5
20260508152109 64 148 2.0 4.0 0.00 0.00 0.00 43 1017.8
20260508151607 64 157 5.0 7.0 0.00 0.00 0.00 47 1017.8
20260508151103 63 177 3.0 6.0 0.00 0.00 0.00 46 1017.8
20260508150601 63 183 3.0 4.0 0.00 0.00 0.00 47 1017.8
20260508150056 63 117 4.0 7.0 0.00 0.00 0.00 49 1017.8
20260508145553 63 119 4.0 7.0 0.00 0.00 0.00 49 1017.8
20260508145049 62 212 4.0 6.0 0.00 0.00 0.00 47 1017.8
20260508144547 62 246 1.0 3.0 0.00 0.00 0.00 52 1017.8
20260508144044 61 193 1.0 4.0 0.00 0.00 0.00 51 1017.8